Waarnemingen

Advertentie
Mijn weer
Tarbes/Ossun, Frankrijk (7621): temperatuur & dauwpunt: 23.03.2017 01:00:00 - 29.03.2017 01:00:00 (CEST)Tarbes/Ossun, Frankrijk (7621): temperatuur 5cm: 23.03.2017 01:00:00 - 29.03.2017 01:00:00 (CEST)Tarbes/Ossun, Frankrijk (7621): temperatuur -20cm & temperatuur -100cm: 23.03.2017 01:00:00 - 29.03.2017 01:00:00 (CEST)Tarbes/Ossun, Frankrijk (7621): windsnelheid & windstoten: 23.03.2017 01:00:00 - 29.03.2017 01:00:00 (CEST)Tarbes/Ossun, Frankrijk (7621): windrichting: 23.03.2017 01:00:00 - 29.03.2017 01:00:00 (CEST)Tarbes/Ossun, Frankrijk (7621): luchtdruk: 23.03.2017 01:00:00 - 29.03.2017 01:00:00 (CEST)Tarbes/Ossun, Frankrijk (7621): zicht: 23.03.2017 01:00:00 - 29.03.2017 01:00:00 (CEST)Tarbes/Ossun, Frankrijk (7621): Zonneschijnduur: 23.03.2017 01:00:00 - 29.03.2017 01:00:00 (CEST)Tarbes/Ossun, Frankrijk (7621): neerslag: 23.03.2017 01:00:00 - 29.03.2017 01:00:00 (CEST)
Datum & Tijd tt [°C] td [°C] tt 5cm [°C] tt -20cm [°C] tt -100cm [°C] ff [km/u] ff [kn] fx [km/u] fx [kn] dd ppp [hPa] vv [km] sd [min] rr [mm]
29.03.2017 01:00:00 7,5 4,6 3,5 12,0 10,3 8 5 15 8 ZZO 1028,8 60 0 0,0
29.03.2017 00:00:00 7,3 4,8 4,0 12,1 10,3 9 5 11 6 Z 1028,8 60 0 0,0
28.03.2017 23:00:00 9,4 5,6 5,7 12,1 10,3 7 4 10 6 ZZO 1028,2 60 0 0,0
28.03.2017 22:00:00 11,5 6,6 8,1 12,0 10,3 6 3 9 5 ZW 1027,6 60 0 0,0
28.03.2017 21:00:00 14,0 6,6 8,5 11,9 10,2 4 2 13 7 NNO 1026,4 60 0 0,0
28.03.2017 20:00:00 15,0 6,5 12,5 11,8 10,3 9 5 23 12 NNO 1025,9 60 17 0,0
28.03.2017 19:00:00 17,8 6,3 24,0 11,5 10,2 14 7 21 12 NNO 1024,8 54 57 0,0
28.03.2017 18:00:00 19,3 5,7 29,5 11,1 10,3 11 6 20 11 NW 1024,2 60 58 0,0
28.03.2017 17:00:00 18,9 4,6 - - - 8 4 22 12 NW 1024,4 60 - -
28.03.2017 16:00:00 18,9 4,3 28,1 10,5 10,2 6 3 20 11 NW 1024,5 60 58 0,0
28.03.2017 15:00:00 17,4 5,7 20,4 10,3 10,3 7 4 23 12 N 1025,2 60 40 0,0
28.03.2017 14:00:00 17,8 5,4 21,8 10,1 10,2 14 7 36 19 N 1025,5 60 55 0,0
28.03.2017 13:00:00 16,8 4,1 20,1 10,0 10,2 13 7 34 18 NW 1026,0 60 54 0,0
28.03.2017 12:00:00 15,9 4,9 19,1 9,9 10,2 17 9 26 14 WNW 1026,3 46 29 0,0
28.03.2017 11:00:00 15,6 4,0 14,4 10,0 10,3 8 4 22 12 WZW 1025,8 18 41 0,0
28.03.2017 10:00:00 11,5 4,7 10,1 10,1 10,3 13 7 17 9 Z 1025,7 40 12 0,0
28.03.2017 09:00:00 9,3 3,9 3,8 10,1 10,3 10 5 18 10 ZZO 1025,3 60 39 0,0
28.03.2017 08:00:00 6,0 3,3 2,9 10,3 10,3 9 5 14 8 Z 1024,9 60 0 0,0
28.03.2017 07:00:00 6,6 3,6 4,0 10,3 10,3 4 2 11 6 Z 1024,4 60 0 0,0
28.03.2017 06:00:00 6,7 4,4 4,5 10,4 10,3 8 4 10 5 ZZW 1024,2 60 0 0,0
28.03.2017 05:00:00 6,9 3,1 2,5 10,5 10,3 10 5 15 8 ZZO 1023,7 60 0 0,0
28.03.2017 04:00:00 5,2 1,9 2,4 10,6 10,3 8 4 14 8 Z 1023,9 60 0 0,0
28.03.2017 03:00:00 7,8 3,3 4,4 10,7 10,3 9 5 15 8 Z 1023,7 60 0 0,0
28.03.2017 02:00:00 8,4 3,4 5,7 10,8 10,3 8 4 16 9 ZZO 1023,4 60 0 0,0
28.03.2017 01:00:00 8,2 4,0 2,4 10,9 10,3 11 6 14 7 Z 1023,1 60 0 0,0
28.03.2017 00:00:00 5,4 2,6 2,5 11,0 10,3 10 6 15 8 Z 1022,9 60 0 0,0
27.03.2017 23:00:00 8,5 3,7 3,3 11,0 10,3 9 5 14 8 ZZO 1022,0 46 0 0,0
27.03.2017 22:00:00 8,6 4,4 4,3 11,0 10,3 8 4 11 6 Z 1021,5 60 0 0,0
27.03.2017 21:00:00 10,5 4,8 4,5 10,9 10,2 6 3 10 5 WZW 1020,2 60 0 0,0
27.03.2017 20:00:00 13,8 5,9 11,7 10,8 10,2 8 4 14 7 WNW 1019,0 60 37 0,0
27.03.2017 19:00:00 15,6 5,5 15,4 10,6 10,2 6 3 16 9 NNW 1018,1 20 46 0,0
27.03.2017 18:00:00 16,9 5,5 - - - 5 3 16 9 N 1017,8 50 - 0,0
27.03.2017 17:00:00 16,2 6,0 19,9 10,2 10,2 13 7 26 14 N 1017,6 51 45 0,0
27.03.2017 16:00:00 15,6 6,0 17,9 10,1 10,2 10 5 22 12 N 1017,5 58 0 0,0
27.03.2017 15:00:00 15,4 3,8 18,7 10,0 10,2 13 7 22 12 N 1017,6 52 0 0,0
27.03.2017 14:00:00 15,0 1,8 17,7 9,9 10,2 6 3 14 8 NW 1017,1 60 0 0,0
27.03.2017 13:00:00 14,1 4,1 16,3 9,9 10,2 3 2 16 9 WZW 1016,6 53 0 0,0
27.03.2017 12:00:00 12,1 6,2 14,3 9,9 10,3 3 2 8 5 ZZW 1016,8 54 0 0,0
27.03.2017 11:00:00 9,6 5,8 8,9 9,9 10,2 2 1 24 13 W 1016,5 27 3 0,0
27.03.2017 10:00:00 7,6 5,1 5,6 10,0 10,3 5 3 11 6 N 1015,6 47 0 0,0
27.03.2017 09:00:00 6,1 4,1 3,6 10,0 10,3 4 2 13 7 O 1015,6 60 0 0,0
27.03.2017 08:00:00 5,5 3,3 3,1 10,2 10,3 4 2 10 6 W 1014,7 60 0 0,0
27.03.2017 07:00:00 6,0 3,3 3,4 10,3 10,3 4 2 10 6 O 1014,4 60 0 0,0
27.03.2017 06:00:00 6,2 3,4 4,0 10,4 10,3 4 2 9 5 ZO 1014,2 60 0 0,0
27.03.2017 05:00:00 5,6 3,9 3,9 10,5 10,3 6 3 8 4 ZZW 1014,3 60 0 0,0
27.03.2017 04:00:00 6,0 3,7 3,6 10,6 10,3 4 2 11 6 ZW 1014,5 60 0 0,0
27.03.2017 03:00:00 5,8 3,8 1,7 10,7 10,3 4 2 10 5 ZO 1015,2 60 0 0,0
27.03.2017 02:00:00 4,8 3,0 -0,8 10,8 10,3 5 3 14 7 ZZO 1015,9 60 0 0,0
27.03.2017 01:00:00 4,2 2,1 -0,2 11,0 10,3 7 4 14 7 ZW 1016,2 56 0 0,0
27.03.2017 00:00:00 6,3 4,0 0,8 11,0 10,3 3 2 9 5 Z 1016,0 49 0 0,0
26.03.2017 23:00:00 7,7 4,3 1,7 11,0 10,3 3 2 11 6 O 1016,0 60 0 0,0
26.03.2017 22:00:00 11,0 4,0 2,6 11,0 10,3 5 3 10 5 NNO 1015,4 60 0 0,0
26.03.2017 21:00:00 13,1 3,2 4,9 10,9 10,3 2 1 23 13 NW 1014,9 60 0 0,0
26.03.2017 20:00:00 15,8 3,6 12,8 10,7 10,3 16 9 30 16 NO 1014,1 58 58 0,0
26.03.2017 19:00:00 17,5 3,7 19,7 10,4 10,3 14 8 30 16 NO 1013,5 48 54 0,0
26.03.2017 18:00:00 18,1 4,3 26,1 10,1 10,3 16 9 30 16 NNO 1013,6 60 60 0,0
26.03.2017 17:00:00 18,4 3,4 29,5 9,7 10,3 13 7 29 16 ONO 1013,7 37 60 0,0
26.03.2017 16:00:00 18,0 4,9 29,5 9,4 10,3 15 8 26 14 NNO 1014,2 49 60 0,0
26.03.2017 15:00:00 17,1 5,4 29,7 9,2 10,3 9 5 22 12 N 1015,3 20 60 0,0
26.03.2017 14:00:00 16,0 3,1 22,1 9,0 10,3 8 4 20 11 ONO 1015,9 60 53 0,0
26.03.2017 13:00:00 13,5 4,9 17,9 8,9 10,3 12 6 17 9 N 1016,6 59 25 0,0
26.03.2017 12:00:00 12,6 5,0 17,8 8,9 10,3 10 5 18 10 NNO 1016,4 56 44 0,0
26.03.2017 11:00:00 10,0 5,2 9,1 8,9 10,3 5 3 11 6 N 1016,6 56 31 0,0
26.03.2017 10:00:00 7,7 4,5 4,6 9,0 10,3 6 3 14 8 ZW 1016,4 58 26 0,0
26.03.2017 09:00:00 4,8 2,0 1,5 9,2 10,3 6 3 19 11 ZZO 1016,5 28 12 0,0
26.03.2017 08:00:00 4,1 0,6 -0,2 9,3 10,3 11 6 17 9 ZO 1015,9 60 0 0,0
26.03.2017 07:00:00 1,6 -0,2 -1,3 9,4 10,3 9 5 18 10 Z 1015,8 60 0 0,0
26.03.2017 06:00:00 1,6 0,4 -0,4 9,5 10,3 5 3 12 7 ZZO 1015,7 60 0 0,0
26.03.2017 05:00:00 1,7 0,4 -1,3 9,7 10,3 6 3 19 11 Z 1015,5 60 0 0,0
26.03.2017 04:00:00 2,5 0,9 -0,7 9,8 10,3 6 3 16 9 ZO 1015,8 60 0 0,0
26.03.2017 03:00:00 1,9 1,0 -0,3 9,9 10,3 5 3 18 10 ZZW 1016,1 59 0 0,0
26.03.2017 02:00:00 1,8 0,8 -1,3 10,0 10,3 6 4 15 8 Z 1016,3 29 0 0,0
26.03.2017 01:00:00 2,7 1,8 - - - 4 2 16 9 ZZW 1016,3 40 - 0,0
26.03.2017 00:00:00 3,2 1,9 -1,1 10,3 10,3 4 2 11 6 WNW 1016,1 16 0 0,0
25.03.2017 23:00:00 3,9 1,9 -0,1 10,3 10,3 7 4 19 11 ZW 1015,8 35 0 0,0
25.03.2017 22:00:00 6,3 4,6 1,1 10,3 10,3 9 5 16 8 ZO 1014,3 39 0 0,0
25.03.2017 21:00:00 6,5 3,8 3,1 10,3 10,4 10 5 14 7 ZW 1013,4 53 0 0,0
25.03.2017 20:00:00 8,8 5,0 7,5 10,1 10,3 6 4 21 12 N 1012,0 60 43 0,0
25.03.2017 19:00:00 10,3 4,6 13,9 9,9 10,3 14 8 31 17 NNO 1011,1 55 45 0,0
25.03.2017 18:00:00 11,3 4,3 20,2 9,7 10,4 13 7 26 14 NO 1010,3 52 51 0,0
25.03.2017 17:00:00 10,6 5,1 15,0 9,5 10,4 6 4 16 9 NNO 1010,1 60 35 0,0
25.03.2017 16:00:00 9,1 4,1 13,4 9,5 10,4 6 3 18 10 N 1010,0 60 32 0,0
25.03.2017 15:00:00 8,0 5,6 9,0 9,4 10,4 13 7 23 13 WNW 1009,7 49 3 0,2
25.03.2017 14:00:00 6,9 4,4 7,6 9,4 10,4 12 7 19 10 WZW 1010,0 59 0 0,0
25.03.2017 13:00:00 6,4 4,2 7,9 9,4 10,4 11 6 18 10 WZW 1010,0 20 0 0,0
25.03.2017 12:00:00 6,1 4,3 7,7 9,4 10,4 11 6 18 10 WZW 1009,8 20 0 0,0
25.03.2017 11:00:00 5,6 4,1 5,2 9,4 10,4 10 5 16 9 WZW 1010,2 8 0 0,2
25.03.2017 10:00:00 4,3 3,1 4,1 9,5 10,4 6 4 14 8 ZW 1011,1 19 0 0,4
25.03.2017 09:00:00 4,1 3,1 3,9 9,6 10,4 11 6 16 9 ZW 1011,2 19 0 0,8
25.03.2017 08:00:00 4,2 3,2 4,0 9,6 10,4 7 4 10 6 ZW 1011,6 9 0 1,0
25.03.2017 07:00:00 4,3 3,3 4,0 9,7 10,4 6 3 13 7 WZW 1011,8 17 0 0,6
25.03.2017 06:00:00 4,4 3,5 4,2 9,8 10,4 5 3 9 5 WZW 1012,5 12 0 0,6
25.03.2017 05:00:00 4,5 3,5 4,0 9,8 10,4 3 2 9 5 W 1013,4 7 0 0,4
25.03.2017 04:00:00 4,4 3,1 4,1 9,9 10,4 5 3 8 4 ZZW 1014,4 17 0 0,0
25.03.2017 03:00:00 4,5 2,8 4,1 10,0 10,4 4 2 7 4 Z 1015,4 60 0 0,0
25.03.2017 02:00:00 4,5 3,2 3,9 10,1 10,4 4 2 12 7 Z 1015,9 48 0 0,0
25.03.2017 01:00:00 4,7 3,2 4,1 10,1 10,4 4 2 12 7 Z 1016,8 28 0 0,4
25.03.2017 00:00:00 4,9 3,1 4,4 10,2 10,4 9 5 14 8 ZZO 1017,1 18 0 1,2
24.03.2017 23:00:00 5,2 3,5 4,6 10,2 10,4 9 5 16 9 ZO 1017,9 40 0 0,4
24.03.2017 22:00:00 5,6 3,1 4,7 10,2 10,4 9 5 26 14 ZZO 1018,5 35 0 0,6
24.03.2017 21:00:00 7,0 2,1 5,4 10,2 10,4 8 4 25 13 ONO 1018,5 11 0 0,4
24.03.2017 20:00:00 9,2 4,4 - - - 5 3 16 9 ONO 1017,1 45 - -
24.03.2017 19:00:00 9,7 4,7 9,6 10,1 10,4 11 6 23 12 NNO 1016,4 56 0 0,0
24.03.2017 18:00:00 10,3 4,6 12,4 9,9 10,4 18 10 29 16 NNO 1015,9 58 0 0,0
24.03.2017 17:00:00 10,8 5,3 12,8 9,8 10,4 16 9 27 15 NNO 1015,8 59 0 0,0
24.03.2017 16:00:00 11,6 3,4 15,6 9,6 10,4 12 7 21 11 N 1015,7 56 0 0,0
24.03.2017 15:00:00 11,9 3,4 19,7 9,4 10,4 6 4 16 9 N 1015,4 53 31 0,0
24.03.2017 14:00:00 11,6 2,6 17,2 9,3 10,4 7 4 23 13 W 1016,0 59 38 0,0
24.03.2017 13:00:00 10,0 1,4 16,4 9,2 10,4 9 5 29 16 NNW 1016,4 54 20 0,0
24.03.2017 12:00:00 9,3 2,2 11,0 9,3 10,4 11 6 19 10 NW 1016,5 60 40 0,0
24.03.2017 11:00:00 8,1 1,5 8,3 9,4 10,4 10 5 16 9 W 1016,1 60 32 0,0
24.03.2017 10:00:00 4,9 1,6 0,1 9,5 10,4 7 4 17 9 Z 1015,8 51 15 0,0
24.03.2017 09:00:00 1,0 -0,5 -2,4 9,7 10,4 11 6 18 10 Z 1016,0 60 4 0,0
24.03.2017 08:00:00 -0,3 -1,1 -3,4 9,9 10,4 11 6 14 8 Z 1015,8 60 0 0,0
24.03.2017 07:00:00 -0,2 -0,8 -3,7 10,0 10,4 9 5 12 6 Z 1015,5 51 0 0,0
24.03.2017 06:00:00 0,1 -0,5 -3,6 10,2 10,4 6 4 10 5 Z 1015,0 38 0 0,0
24.03.2017 05:00:00 -0,2 -0,8 -3,1 10,3 10,4 8 5 10 5 ZZW 1015,0 13 0 0,0
24.03.2017 04:00:00 1,3 0,6 -2,8 10,5 10,4 6 3 9 5 ZZO 1015,0 20 0 0,0
24.03.2017 03:00:00 1,4 0,7 -1,9 10,7 10,4 4 2 8 4 ZZW 1015,1 17 0 0,0
24.03.2017 02:00:00 2,2 1,6 -1,0 10,8 10,4 5 3 13 7 ZZO 1014,7 18 0 0,0
24.03.2017 01:00:00 2,7 1,8 0,1 11,0 10,4 6 4 15 8 ZZW 1014,6 20 0 0,0
24.03.2017 00:00:00 3,2 2,2 0,9 11,1 10,4 7 4 12 6 ZW 1014,2 20 0 0,0
23.03.2017 23:00:00 4,8 2,5 0,5 11,2 10,4 6 3 11 6 NNW 1013,1 57 0 0,0
23.03.2017 22:00:00 7,4 1,7 2,1 11,3 10,4 7 4 21 11 NO 1012,2 60 0 0,0
23.03.2017 21:00:00 7,2 1,9 3,1 11,3 10,4 10 6 23 12 NO 1011,5 60 0 1,0
23.03.2017 20:00:00 8,3 1,9 2,6 11,2 10,4 5 3 23 12 NNW 1010,4 31 0 1,2
23.03.2017 19:00:00 10,0 0,3 10,0 10,9 10,4 13 7 21 11 NO 1009,4 60 1 0,0
23.03.2017 18:00:00 11,1 -0,4 15,4 10,7 10,4 11 6 23 12 NNO 1008,7 58 50 0,0
23.03.2017 17:00:00 12,0 0,7 20,3 10,4 10,4 9 5 22 12 N 1008,4 20 55 0,0
23.03.2017 16:00:00 10,5 0,8 15,5 10,2 10,4 12 6 32 17 NNO 1008,8 58 48 0,0
23.03.2017 15:00:00 10,6 1,7 16,4 9,9 10,4 10 6 23 12 NNO 1009,0 60 41 0,0
23.03.2017 14:00:00 10,8 1,1 19,5 9,8 10,4 5 3 16 8 O 1009,2 60 56 0,0
23.03.2017 13:00:00 9,6 0,7 19,9 9,8 10,4 5 3 16 9 ZZW 1009,6 60 54 0,0
23.03.2017 12:00:00 8,6 0,6 11,5 9,8 10,4 4 2 13 7 ZZW 1010,0 60 40 0,0
23.03.2017 11:00:00 6,7 0,1 6,6 9,8 10,4 5 3 16 9 Z 1010,2 60 10 0,0
23.03.2017 10:00:00 5,9 1,6 6,1 9,9 10,4 9 5 17 9 ZW 1009,9 60 47 0,0
23.03.2017 09:00:00 4,6 2,5 2,9 10,0 10,4 11 6 24 13 Z 1009,9 59 31 0,0
23.03.2017 08:00:00 3,8 2,0 3,3 10,1 10,4 13 7 26 14 W 1009,8 54 0 0,0
23.03.2017 07:00:00 4,0 3,0 3,8 10,3 10,4 18 10 31 17 WNW 1009,0 30 0 0,6
23.03.2017 06:00:00 4,4 3,2 4,2 10,4 10,4 14 8 22 12 WNW 1008,7 16 0 0,4
23.03.2017 05:00:00 4,5 3,2 4,1 10,5 10,4 8 4 21 11 WZW 1009,0 24 0 0,6
23.03.2017 04:00:00 4,6 3,3 3,7 10,6 10,4 11 6 16 9 WZW 1009,0 60 0 0,0
23.03.2017 03:00:00 3,9 2,7 3,4 10,7 10,4 9 5 12 7 ZZW 1009,4 33 0 0,4
23.03.2017 02:00:00 3,6 2,1 - - - 4 2 21 11 ONO 1009,5 45 - -
23.03.2017 01:00:00 - - - - - - - - - - - - - -

tt = temperatuur
td = dauwpunt
tt 5cm = temperatuur 5cm
tt -20cm = temperatuur -20cm
tt -100cm = temperatuur -100cm
ff = windsnelheid
fx = windstoten
dd = windrichting
ppp = luchtdruk
vv = zicht
sd = Zonneschijnduur
rr = neerslag

Weerstations in de omgeving